This demonstration page uses our WeatherBlox Daily Observations layout. Learn more.

Left ArrowRight Arrow

39.95233, -75.16379

Hourly Observations for August 14, 2022

Temp ( °F °C ) Dew Point ( °F °C ) Humidity (%) Winds ( mph kmh ) Pressure ( in mb ) Visibility ( mi km ) Precip ( " mm )
12:54 am 00:54 Cloudy 69 20.6 58 14.4 68 68 S 3 6 30.07 1018 10 16 0.00 0.00
1:54 am 01:54 Cloudy 69 20.6 59 15 70 70 Calm 30.07 1018 10 16 0.00 0.00
2:54 am 02:54 Cloudy 69 20.6 59 15 70 70 ESE 3 6 30.06 1018 10 16 0.00 0.00
3:54 am 03:54 Cloudy 68 20 60 15.6 76 76 SE 3 6 30.06 1018 10 16 0.00 0.00
4:54 am 04:54 Mostly Cloudy 68 20 60 15.6 76 76 Calm 30.06 1018 10 16 0.00 0.00
5:54 am 05:54 Mostly Cloudy 68 20 61 16.1 78 78 Calm 30.07 1018 10 16 0.00 0.00
6:54 am 06:54 Mostly Cloudy 68 20 61 16.1 78 78 S 3 6 30.07 1018 10 16 0.00 0.00
7:54 am 07:54 Mostly Cloudy 70 21.1 62 16.7 76 76 SSW 7 11 30.08 1019 10 16 0.00 0.00
8:54 am 08:54 Mostly Cloudy 73 22.8 62 16.7 68 68 SSW 6 9 30.07 1018 10 16 0.00 0.00
9:54 am 09:54 Mostly Cloudy 77 25 60 15.6 56 56 SW 6 9 30.06 1018 10 16 0.00 0.00
10:54 am 10:54 Mostly Cloudy 77 25 59 15 54 54 S 6 9 30.07 1018 10 16 0.00 0.00
11:54 am 11:54 Mostly Cloudy 79 26.1 60 15.6 52 52 S 8 13 30.06 1018 10 16 0.00 0.00
12:54 pm 12:54 Mostly Cloudy 81 27.2 58 14.4 45 45 VRB 7 11 30.05 1018 10 16 0.00 0.00
1:54 pm 13:54 Partly Cloudy 82 27.8 57 13.9 43 43 SW 6 9 30.04 1017 10 16 0.00 0.00
2:54 pm 14:54 Partly Cloudy 83 28.3 51 10.6 33 33 SW 6 9 30.02 1017 10 16 0.00 0.00
3:54 pm 15:54 Partly Cloudy 83 28.3 54 12.2 37 37 SSE 5 7 30.00 1016 10 16 0.00 0.00
4:54 pm 16:54 Mostly Cloudy 85 29.4 54 12.2 35 35 WSW 8 13 29.99 1016 10 16 0.00 0.00
5:54 pm 17:54 Mostly Cloudy 84 28.9 52 11.1 33 33 S 6 9 29.99 1016 10 16 0.00 0.00
6:54 pm 18:54 Mostly Cloudy 84 28.9 50 10 31 31 SW 10 17 29.99 1016 10 16 0.00 0.00
7:54 pm 19:54 Mostly Cloudy 81 27.2 53 11.7 38 38 SSW 8 13 29.99 1016 10 16 0.00 0.00
8:54 pm 20:54 Mostly Cloudy 77 25 57 13.9 50 50 SW 7 11 30.02 1017 10 16 0.00 0.00
9:54 pm 21:54 Mostly Cloudy 73 22.8 57 13.9 57 57 SSE 5 7 30.03 1017 10 16 0.00 0.00
10:54 pm 22:54 Mostly Clear 73 22.8 57 13.9 57 57 SSW 5 7 30.03 1017 10 16 0.00 0.00
11:54 pm 23:54 Partly Cloudy 72 22.2 58 14.4 61 61 Calm 30.02 1017 10 16 0.00 0.00

Powered by AerisWeather